Vorticity
13 12 11 9 11 13 14 14 12 9 7 8 11 11 9 9 8 8 13 14 9 7 8 7 5 5 5 5 6 5 4 5 5 6 6 7 11 6 1 3 5 6 6 5 4 6 9 11 11 9 9 8 7 8 8 10 9 7 10 9 11 16 12 7 11 11 10 13 12 9 7 5 8 13 12 7 7 8 7 8 8 9 11 12 13 15
12 11 11 13 15 15 15 13 12 11 8 8 10 10 10 10 10 10 14 17 12 8 7 7 5 4 5 4 4 5 4 3 3 3 3 7 9 4 4 8 7 5 4 4 5 8 9 10 10 8 7 6 6 6 7 9 9 9 9 8 11 13 12 15 17 14 13 13 11 8 4 0 6 15 13 7 6 7 9 11 10 11 12 10 11 16
11 12 12 14 14 13 13 12 11 11 9 9 9 10 9 9 10 11 14 15 13 10 7 7 6 4 5 5 4 4 4 4 4 4 4 8 7 6 10 10 4 3 3 4 7 8 10 11 10 8 7 6 7 7 7 9 10 10 9 10 10 8 11 11 4 5 9 10 9 5 1 3 9 15 12 6 6 8 11 13 12 12 11 8 12 17
12 12 11 13 13 12 13 12 10 10 10 10 9 9 8 8 9 12 15 14 11 12 9 7 7 5 4 5 4 3 3 4 4 4 6 10 9 6 9 7 3 3 3 5 7 8 11 11 9 8 9 8 7 7 7 7 10 11 11 12 9 8 9 0 -7 4 13 10 7 4 5 10 13 14 10 5 6 9 11 12 13 13 14 14 12 10
14 11 11 13 13 13 13 11 10 9 8 9 10 9 8 7 8 12 17 16 12 11 10 7 6 4 3 3 4 4 4 3 4 4 5 10 10 6 7 6 4 3 4 6 7 9 12 11 8 7 7 6 6 6 7 7 8 9 10 11 10 9 5 -2 -2 11 14 8 7 8 10 14 14 13 8 4 7 12 12 10 10 11 13 13 10 7
13 11 12 14 13 13 13 12 10 9 8 9 10 9 7 7 7 11 17 16 12 10 9 8 6 4 4 3 3 4 4 4 4 4 4 8 8 5 6 5 3 3 5 8 9 11 12 9 7 5 5 7 7 6 7 8 9 10 10 10 10 8 3 1 7 13 10 7 10 12 12 13 15 14 7 4 10 16 15 10 9 7 5 6 9 11
11 10 11 13 14 13 13 13 11 9 8 8 10 10 8 7 6 10 17 15 11 10 10 9 6 5 5 3 2 3 4 4 4 5 5 6 5 6 7 4 3 5 6 8 10 10 9 8 7 7 8 7 7 10 14 16 15 12 10 9 8 7 7 8 11 13 10 11 14 14 14 13 8 5 4 9 16 17 13 10 7 6 6 8 11 10
10 9 9 11 13 13 13 14 13 10 9 8 9 11 8 7 6 9 17 16 11 9 10 9 7 6 7 6 5 3 3 4 4 4 3 2 4 6 5 3 2 4 6 8 10 9 7 8 10 10 9 8 11 16 18 15 10 6 5 7 6 6 11 12 10 10 10 12 15 14 16 15 8 7 11 17 21 14 9 7 4 5 9 11 10 8
9 11 9 10 12 14 12 12 14 12 10 9 9 11 10 8 7 11 16 16 12 9 7 7 6 5 6 7 6 5 3 3 4 5 3 2 6 6 4 3 3 4 7 9 10 7 7 9 11 9 7 10 13 10 4 1 3 5 7 8 7 8 15 14 6 6 9 12 16 16 13 9 9 15 16 19 20 8 3 6 6 8 11 10 9 7
10 10 8 10 12 13 13 11 13 14 12 11 9 10 10 7 9 13 14 14 13 8 6 7 6 5 6 7 6 6 4 4 4 5 4 4 6 4 2 2 4 6 8 9 8 6 7 8 6 6 8 12 11 5 0 2 6 9 11 12 10 9 13 12 2 2 9 9 11 12 7 2 7 14 16 18 16 7 5 9 12 14 12 9 8 6
9 10 9 11 10 10 12 11 12 13 13 14 11 8 8 8 10 11 11 14 11 7 9 10 7 5 5 6 6 5 6 7 6 6 7 7 6 5 5 5 7 10 9 9 8 4 4 5 3 6 9 10 8 6 6 8 9 10 12 11 10 11 11 12 10 5 6 8 9 11 9 8 12 14 12 8 4 5 11 12 12 12 10 7 5 4
7 10 11 9 8 8 10 11 12 13 13 14 11 8 7 8 10 10 12 12 5 5 13 12 7 7 5 6 7 6 6 7 7 8 9 11 12 10 10 9 9 10 8 8 7 6 5 4 4 6 8 6 5 7 11 11 10 13 14 8 8 15 11 8 12 6 4 12 13 11 14 15 14 12 8 7 7 10 13 13 12 10 7 5 4 3
8 10 11 8 8 8 9 9 10 12 11 13 12 6 4 5 7 8 7 4 -1 5 15 12 6 7 6 6 8 7 7 5 6 8 8 10 12 11 11 12 11 9 9 10 9 9 7 2 3 5 7 6 5 9 13 12 9 10 12 6 3 12 12 8 13 13 10 14 11 9 16 15 9 6 6 9 13 13 11 12 11 7 4 3 3 3
7 10 12 10 9 7 8 9 8 10 10 10 11 6 1 -1 -1 1 2 2 2 6 11 10 7 7 7 8 9 8 8 8 6 6 7 7 5 5 6 4 2 4 7 11 12 10 5 1 4 7 7 6 7 11 11 9 7 5 6 6 6 12 14 12 14 15 11 10 10 13 16 12 8 10 11 11 13 14 12 10 7 4 5 3 3 4
6 10 13 10 11 8 6 8 8 10 12 10 12 13 9 3 2 6 8 7 7 6 7 9 6 4 7 10 9 8 9 10 8 5 4 3 0 -0 -1 -3 -2 3 8 13 14 6 1 4 8 9 8 7 7 10 10 7 6 4 3 7 10 10 11 11 12 12 10 10 13 15 13 10 9 9 9 10 13 13 9 6 5 4 4 3 4 6
6 10 13 10 10 11 7 8 8 9 11 12 13 12 9 9 11 12 11 9 7 6 7 9 5 3 8 9 8 8 7 8 9 6 2 0 -0 -2 -1 3 9 12 12 13 9 2 2 8 10 9 8 7 7 9 9 9 8 6 5 7 8 9 11 12 9 7 5 6 12 15 13 13 10 7 10 13 12 9 6 5 5 4 4 6 7 7
7 6 11 11 11 13 9 8 10 9 8 10 12 9 8 13 12 8 8 9 8 6 7 9 6 6 8 8 9 8 5 6 9 8 6 4 2 -0 -3 -1 7 13 13 10 7 6 7 9 7 7 6 4 7 9 9 10 8 6 6 7 9 10 10 7 2 0 0 5 13 15 14 14 13 12 14 12 7 4 5 5 5 5 6 7 6 5
5 3 9 11 9 13 12 9 11 11 9 11 11 10 12 12 8 6 8 8 8 8 7 9 9 9 7 6 9 9 5 6 6 6 9 6 2 1 -1 -1 6 13 8 3 7 11 9 7 5 5 6 5 7 8 8 10 9 6 7 8 9 9 9 8 5 2 2 8 15 15 13 14 14 13 10 5 4 4 5 7 7 7 6 5 5 4
4 2 8 10 8 12 13 10 10 10 10 11 12 13 12 7 4 6 7 4 5 8 7 8 10 9 8 6 8 9 7 6 6 7 7 4 2 2 4 8 11 7 -1 -1 9 13 8 4 3 4 6 7 8 9 10 11 9 8 7 8 8 7 9 10 9 8 10 14 16 13 13 13 10 7 4 3 4 6 7 8 7 6 5 4 4 4
1 2 8 9 7 11 15 14 11 9 8 9 10 12 10 6 6 9 7 4 6 8 8 8 9 10 10 9 8 10 9 7 9 11 6 2 5 5 9 19 15 2 0 5 8 9 6 2 3 6 5 5 8 10 11 11 9 7 7 6 6 7 8 10 10 11 14 15 14 12 11 10 6 3 3 4 6 8 9 8 5 4 4 4 3 3
-0 3 7 7 8 13 17 15 10 7 9 10 9 9 7 6 9 10 7 4 4 6 7 7 8 10 11 10 8 9 11 9 10 9 6 5 5 5 12 20 13 4 6 10 9 11 12 8 6 7 4 5 9 11 12 12 9 8 7 6 6 7 8 10 12 13 13 12 11 11 9 5 3 3 4 6 8 10 8 5 3 4 3 3 2 2
1 2 6 10 13 13 13 12 10 9 13 16 13 11 10 9 9 6 4 5 5 5 6 7 7 9 10 12 12 11 9 10 10 8 5 2 1 7 16 17 13 15 16 11 8 10 10 10 10 9 7 8 10 12 13 12 9 8 7 7 7 8 7 10 16 15 10 9 9 8 6 3 3 4 6 9 11 9 5 3 3 4 3 2 1 1
5 6 7 11 9 3 6 12 13 11 14 18 17 14 13 10 7 4 5 9 10 5 5 8 7 7 10 10 11 15 12 8 9 9 7 5 8 16 20 14 10 15 17 13 10 10 11 14 13 9 8 8 9 12 13 10 8 6 7 7 7 7 8 11 16 15 10 9 8 5 3 3 4 6 8 11 10 5 2 2 3 3 2 0 -0 1
7 9 5 5 6 5 10 16 15 13 15 18 17 15 13 9 7 7 8 10 10 4 2 7 9 11 16 16 13 15 15 11 8 6 8 12 14 16 14 9 7 10 14 14 13 13 15 16 13 9 7 7 9 13 13 10 6 5 6 7 6 6 8 12 14 12 9 8 6 4 3 4 5 7 10 11 7 3 2 3 4 2 0 -1 0 2
9 12 6 5 12 13 12 13 13 13 13 14 16 16 12 11 11 10 9 8 10 6 -2 1 10 11 12 21 26 20 12 13 12 6 5 5 3 2 1 3 7 6 4 2 -0 4 9 10 10 11 11 13 14 14 13 9 6 5 6 6 6 6 9 13 13 9 8 7 5 5 5 4 5 8 10 9 4 1 2 3 2 1 -1 -0 2 3
9 12 9 8 14 14 10 10 10 8 8 10 14 14 12 12 12 9 8 8 11 9 -1 -3 8 11 4 9 27 30 16 10 11 9 4 -0 -0 1 -2 -0 4 -3 -11 -14 -13 -4 7 10 9 11 14 17 15 12 11 9 6 5 5 5 6 7 9 13 13 9 8 7 5 6 5 4 6 8 9 7 3 1 2 3 2 1 0 1 2 2
4 7 9 8 12 15 15 17 19 18 15 11 11 12 11 13 14 10 7 9 10 8 1 -5 -1 7 5 1 11 24 23 14 12 13 11 6 7 4 -3 1 7 0 -8 -13 -12 3 15 12 6 5 7 12 13 11 11 9 6 5 5 5 5 6 9 11 12 11 9 7 6 7 5 4 6 8 8 5 2 2 4 3 2 1 1 1 1 2
2 7 13 9 10 15 14 13 17 20 17 12 11 12 12 13 15 10 5 7 9 6 0 -3 -4 -4 -0 4 6 12 20 19 13 13 12 8 7 5 1 6 11 7 1 -5 -2 14 20 9 -0 -2 1 7 11 11 10 8 6 5 4 5 5 7 9 9 8 9 10 9 8 7 5 4 6 7 7 5 4 5 6 4 2 2 1 -0 1 1
2 8 15 11 11 18 17 11 11 14 15 15 13 12 13 14 12 9 7 6 6 5 -2 -3 5 3 -3 5 11 6 7 14 13 10 11 7 5 5 4 6 7 6 8 11 16 24 18 4 -3 -3 -0 5 7 9 10 9 6 4 4 5 5 7 9 10 8 7 9 11 11 9 7 5 5 5 6 6 6 6 5 3 3 2 1 -0 1 1
1 7 14 11 10 17 19 14 11 12 14 16 16 13 14 17 12 7 7 3 1 4 -2 -9 3 13 3 -0 13 14 6 5 3 1 3 4 5 7 5 1 1 7 18 24 24 22 14 4 0 -0 2 5 6 7 8 6 5 5 5 5 5 6 8 10 10 8 9 11 13 12 9 5 4 5 6 6 6 5 4 4 3 2 0 1 2 3
-0 7 13 11 12 20 21 15 11 13 15 17 18 15 14 17 15 9 5 4 3 3 -0 -11 -10 8 12 2 8 19 17 13 11 8 6 3 1 3 3 -0 4 14 24 23 17 14 12 8 3 2 4 7 8 8 6 5 5 4 4 4 6 6 6 8 9 9 9 11 12 13 12 8 6 5 5 5 4 3 2 2 2 2 2 3 3 3
-0 6 13 12 13 19 19 14 12 13 14 16 16 15 15 15 16 11 3 5 6 2 4 -1 -16 -10 7 6 2 5 7 9 12 11 9 11 11 12 13 14 18 22 21 16 10 7 8 6 4 5 7 8 8 8 8 8 6 6 5 4 5 6 6 7 7 8 9 10 13 14 13 10 7 5 5 4 3 2 2 1 2 3 3 3 2 2
5 11 14 13 14 15 13 12 14 13 14 18 17 14 15 15 16 12 4 4 7 4 7 8 -6 -17 -10 1 6 6 1 -1 2 6 14 23 25 23 21 21 21 18 15 14 11 9 9 10 12 14 13 10 7 6 7 8 8 7 7 6 7 8 7 6 5 6 8 8 11 14 14 11 7 4 3 2 2 2 0 1 2 3 3 2 1 2
6 13 14 15 15 15 11 9 11 12 15 19 17 15 16 17 17 13 5 4 10 12 9 8 7 1 -4 -1 5 8 10 10 9 10 12 14 13 13 16 17 15 13 14 15 12 12 14 14 15 15 14 11 9 8 8 9 10 9 8 10 12 11 8 7 5 5 6 7 9 12 13 11 7 5 3 3 2 1 1 2 3 3 2 2 2 5
7 6 10 15 13 13 11 7 8 11 13 14 14 14 14 14 16 14 8 5 7 14 16 10 8 8 6 4 3 2 7 13 17 16 9 4 7 12 15 13 10 11 15 16 16 14 13 13 11 9 8 9 10 9 8 10 11 11 10 10 11 12 12 10 7 5 6 7 8 11 12 11 8 6 4 3 2 1 2 3 3 3 3 2 5 9
13 6 10 13 13 14 10 6 9 10 12 14 13 11 7 8 13 12 9 9 6 8 15 12 3 1 3 2 -1 -3 -5 -3 11 22 18 13 14 13 11 8 7 14 19 20 19 16 14 14 13 9 8 9 10 10 10 11 11 10 10 10 10 11 11 10 9 8 7 7 7 9 10 9 8 7 5 4 4 5 5 5 5 7 7 6 9 12
12 13 17 12 13 18 11 7 9 9 11 14 11 9 5 3 10 9 4 7 9 8 12 13 3 -4 0 2 -1 1 -2 -9 -5 -3 -7 2 11 7 6 8 10 16 15 6 3 4 6 10 10 11 13 14 14 15 14 13 11 9 9 8 8 9 10 12 11 8 8 8 7 7 8 8 8 6 4 4 6 6 5 3 3 6 7 8 10 12
4 7 14 11 14 19 14 9 7 6 12 15 10 8 3 -3 3 8 2 0 8 11 10 13 9 -1 -2 1 -1 4 3 -1 -1 -8 -14 2 13 2 0 7 9 9 -0 -12 -9 2 7 12 13 13 14 13 12 12 11 10 10 9 9 9 8 8 9 10 10 9 10 8 6 7 8 9 9 5 2 6 9 7 4 4 4 6 8 8 11 13
4 3 5 7 10 15 16 13 8 6 12 16 12 6 2 -3 -1 5 4 -1 4 10 9 12 14 7 1 0 1 7 7 3 7 6 2 14 15 -1 -3 7 10 7 -4 -12 -2 8 10 13 12 6 4 4 5 5 4 4 4 5 7 8 8 8 9 10 10 9 8 6 9 13 11 9 9 8 5 7 7 6 6 6 8 9 9 10 13 14
6 5 7 6 4 11 17 13 11 12 12 15 16 6 2 5 2 -0 4 2 -1 4 9 14 17 14 10 4 -2 -0 1 1 7 8 6 10 3 -9 -3 8 12 15 12 7 9 9 6 9 10 8 7 7 3 0 -1 -2 -1 1 5 6 6 8 10 10 8 7 8 7 10 14 12 9 8 9 9 6 5 9 11 9 10 12 12 13 14 12
9 3 6 7 1 8 18 12 10 18 15 11 13 7 2 9 9 4 6 7 1 0 3 8 14 16 14 8 1 -1 -1 1 5 4 1 -2 -10 -10 6 15 11 12 17 13 5 0 3 9 11 10 7 -1 -7 -5 -1 0 1 5 9 9 8 7 7 7 7 9 9 6 7 13 16 15 13 10 5 -0 -0 7 10 10 12 14 13 12 11 8
19 8 5 9 4 4 15 13 7 16 21 12 8 7 1 1 7 10 10 8 7 6 2 2 6 13 17 16 13 9 3 -0 -0 -1 -2 -2 -1 7 17 12 1 3 11 10 2 -1 4 7 3 -2 -6 -9 -7 2 9 10 9 10 13 12 9 7 6 6 7 8 8 6 7 8 10 10 7 2 2 4 9 15 14 12 13 14 12 10 7 6
14 11 7 9 6 1 10 15 8 11 22 17 6 5 4 -2 0 7 10 10 10 9 9 6 2 3 9 14 14 11 5 3 4 6 9 13 16 17 12 2 -2 2 6 7 6 5 5 4 1 -2 0 4 7 10 13 12 10 10 11 9 8 7 6 5 6 6 6 6 5 4 6 7 4 6 13 18 20 21 17 13 13 12 10 7 5 7
8 7 7 8 8 1 3 14 13 11 20 24 14 7 5 2 1 -0 2 9 10 6 7 9 6 2 -1 -0 4 8 9 10 11 12 15 16 13 8 1 -2 1 3 3 5 8 7 6 6 6 7 10 12 12 11 12 12 10 9 8 6 7 6 4 4 4 4 4 5 5 5 5 5 6 14 16 9 8 15 16 12 11 9 6 5 6 9
20 13 5 5 10 6 2 7 10 10 14 22 24 20 12 8 8 3 -1 2 7 7 5 4 5 6 3 -0 -1 1 7 11 12 11 11 9 5 0 -3 -1 1 2 2 4 4 4 5 8 11 15 17 18 18 17 17 16 16 16 12 8 7 6 5 5 5 4 4 4 4 4 4 4 5 7 3 -0 8 15 7 -0 4 7 7 7 9 11
25 25 12 2 5 7 7 7 6 9 14 16 19 23 19 13 12 10 5 2 3 8 9 5 3 3 4 6 3 1 1 3 3 5 7 5 1 -5 -5 -1 2 1 1 2 4 8 11 13 16 18 19 19 18 17 15 15 17 19 18 15 10 8 7 7 6 5 5 5 5 6 7 7 6 5 5 9 13 7 -3 -2 8 13 12 12 13 13
15 24 18 13 13 12 14 14 8 5 10 15 16 18 17 14 10 9 10 8 9 12 15 13 9 3 1 2 3 3 3 1 0 1 -1 -6 -11 -10 -1 8 9 7 7 10 13 15 14 12 13 14 14 14 12 12 12 13 14 16 19 20 16 11 10 9 9 9 9 9 10 9 9 9 10 11 14 14 10 6 7 12 13 12 13 15 15 13
14 15 9 11 15 12 15 25 25 13 6 7 12 15 18 20 19 19 19 18 19 23 24 24 22 17 11 6 3 1 1 1 0 -0 -2 -3 -1 7 16 20 17 16 16 16 15 13 9 8 9 9 10 10 8 8 9 10 11 13 15 18 18 15 13 11 11 11 10 10 10 9 9 9 8 7 9 8 7 9 13 13 11 10 13 15 13 10
17 17 11 8 6 2 1 11 22 20 10 6 7 8 8 11 12 13 14 12 10 13 17 21 25 27 26 23 19 16 13 10 10 13 16 19 21 20 19 16 14 15 15 12 11 10 8 8 8 9 10 10 10 11 12 11 13 14 13 14 15 15 13 12 10 10 9 10 10 9 9 9 10 11 10 5 4 7 9 10 10 11 13 13 10 9
11 17 19 17 13 9 3 -0 2 3 1 2 4 2 2 4 6 7 8 8 7 8 9 9 10 14 19 22 24 26 26 25 24 23 22 22 20 16 14 13 12 13 12 11 12 12 11 12 12 13 15 14 14 14 14 13 13 13 13 14 14 13 13 13 12 12 12 11 11 11 10 10 9 8 7 8 13 18 18 18 16 13 13 12 7 7
10 13 15 15 15 17 16 11 7 3 0 1 3 3 5 7 6 6 5 4 4 8 12 11 8 8 11 11 11 13 16 17 15 13 11 12 14 16 17 17 16 16 16 15 15 14 13 13 13 13 13 11 11 10 9 10 11 10 11 13 13 13 14 13 13 14 14 13 13 12 10 10 12 13 14 15 17 17 16 17 17 14 13 11 6 10
Height
5648 5652 5659 5669 5678 5686 5691 5696 5700 5703 5707 5712 5718 5722 5727 5732 5737 5743 5750 5754 5756 5759 5762 5765 5768 5771 5775 5778 5780 5782 5785 5788 5790 5792 5794 5797 5799 5801 5802 5803 5805 5806 5808 5810 5812 5813 5814 5814 5813 5814 5814 5815 5815 5816 5817 5817 5817 5817 5818 5819 5819 5820 5821 5821 5821 5822 5823 5823 5824 5824 5825 5824 5824 5824 5824 5825 5825 5825 5826 5826 5826 5825 5825 5824 5824 5824
5642 5649 5660 5672 5677 5681 5684 5689 5693 5697 5703 5709 5715 5719 5723 5728 5733 5740 5747 5750 5752 5756 5759 5762 5764 5767 5771 5774 5777 5778 5781 5785 5787 5790 5792 5794 5796 5798 5800 5801 5803 5804 5806 5808 5810 5811 5811 5811 5812 5812 5812 5813 5813 5814 5814 5815 5815 5815 5816 5817 5817 5818 5819 5819 5819 5820 5820 5821 5822 5822 5822 5822 5822 5821 5822 5822 5823 5823 5824 5824 5824 5823 5822 5822 5823 5823
5639 5650 5662 5667 5668 5672 5678 5684 5690 5694 5699 5705 5711 5715 5720 5725 5730 5736 5742 5745 5748 5751 5755 5758 5760 5763 5767 5770 5773 5775 5778 5781 5784 5786 5789 5791 5794 5796 5798 5799 5801 5803 5804 5806 5807 5808 5809 5809 5809 5810 5810 5811 5812 5812 5812 5812 5813 5814 5814 5815 5816 5816 5817 5817 5817 5818 5818 5819 5819 5820 5820 5820 5819 5819 5820 5820 5821 5822 5822 5822 5821 5821 5821 5821 5822 5822
5639 5649 5654 5656 5661 5668 5674 5680 5686 5689 5694 5701 5707 5711 5716 5721 5725 5731 5737 5740 5743 5746 5750 5754 5757 5760 5763 5766 5768 5770 5774 5777 5780 5783 5786 5789 5792 5794 5796 5797 5799 5801 5802 5804 5805 5806 5806 5807 5807 5808 5808 5809 5810 5810 5810 5810 5811 5812 5813 5813 5814 5814 5815 5815 5815 5815 5816 5816 5817 5818 5818 5818 5817 5817 5817 5818 5819 5820 5819 5819 5819 5819 5819 5820 5820 5820
5637 5642 5646 5652 5659 5665 5670 5675 5680 5685 5690 5696 5703 5707 5712 5717 5722 5728 5733 5737 5739 5741 5745 5749 5752 5755 5758 5761 5763 5767 5771 5774 5777 5780 5783 5787 5790 5792 5793 5795 5797 5799 5800 5801 5802 5804 5804 5804 5805 5806 5806 5807 5808 5808 5809 5809 5809 5810 5811 5811 5812 5812 5812 5812 5812 5813 5814 5815 5815 5816 5816 5816 5815 5815 5815 5816 5817 5817 5817 5817 5817 5817 5818 5818 5818 5819
5630 5636 5643 5651 5656 5660 5666 5671 5677 5682 5687 5692 5699 5704 5709 5714 5719 5724 5729 5733 5735 5737 5741 5745 5747 5750 5753 5756 5760 5764 5768 5771 5774 5777 5781 5784 5787 5789 5791 5794 5795 5797 5798 5799 5800 5801 5802 5802 5803 5803 5804 5805 5805 5806 5806 5807 5808 5808 5808 5808 5809 5808 5808 5808 5811 5812 5813 5813 5813 5813 5814 5814 5814 5814 5814 5815 5815 5815 5815 5815 5816 5816 5817 5817 5817 5817
5625 5632 5640 5647 5652 5657 5663 5669 5675 5680 5683 5689 5696 5702 5705 5710 5716 5720 5725 5728 5730 5733 5737 5741 5744 5747 5750 5753 5757 5761 5765 5768 5771 5774 5778 5781 5784 5786 5789 5791 5793 5794 5796 5797 5798 5799 5800 5800 5800 5801 5802 5803 5803 5804 5804 5805 5805 5805 5805 5805 5805 5804 5805 5807 5810 5811 5811 5811 5811 5811 5811 5812 5812 5812 5812 5813 5813 5813 5814 5814 5814 5815 5815 5815 5816 5816
5623 5629 5636 5643 5649 5655 5660 5667 5673 5677 5681 5688 5695 5699 5703 5708 5712 5716 5721 5724 5727 5730 5734 5738 5742 5744 5746 5750 5755 5759 5761 5764 5767 5771 5775 5778 5781 5784 5787 5788 5790 5792 5793 5795 5796 5797 5797 5798 5798 5799 5800 5800 5801 5801 5802 5802 5802 5802 5802 5802 5802 5803 5805 5808 5809 5808 5808 5808 5808 5808 5809 5810 5810 5810 5811 5810 5811 5811 5812 5813 5813 5813 5814 5814 5814 5814
5621 5626 5633 5640 5646 5651 5658 5665 5670 5675 5680 5685 5692 5696 5700 5704 5708 5713 5718 5721 5724 5726 5729 5734 5738 5739 5742 5746 5751 5755 5757 5760 5764 5769 5773 5776 5779 5782 5784 5786 5787 5789 5790 5792 5793 5794 5795 5796 5796 5797 5797 5798 5798 5799 5800 5800 5800 5800 5799 5801 5803 5804 5804 5805 5805 5806 5806 5806 5806 5807 5808 5808 5808 5809 5809 5808 5809 5810 5811 5811 5811 5812 5812 5812 5813 5813
5616 5622 5629 5636 5643 5649 5656 5662 5666 5671 5676 5682 5688 5692 5696 5700 5704 5709 5714 5717 5720 5722 5725 5730 5733 5735 5738 5742 5746 5749 5753 5757 5763 5768 5771 5775 5778 5780 5782 5783 5784 5786 5787 5789 5791 5792 5793 5794 5794 5795 5795 5796 5796 5797 5798 5798 5798 5798 5798 5799 5800 5800 5801 5803 5803 5803 5803 5804 5805 5805 5806 5806 5806 5807 5807 5807 5808 5809 5809 5810 5810 5811 5811 5811 5812 5812
5612 5619 5624 5632 5640 5646 5651 5656 5661 5667 5673 5678 5684 5689 5692 5696 5701 5705 5710 5714 5716 5717 5722 5727 5730 5732 5734 5737 5742 5746 5751 5758 5763 5767 5770 5773 5776 5778 5780 5781 5782 5784 5785 5786 5788 5789 5791 5791 5792 5793 5793 5794 5794 5795 5796 5796 5796 5796 5796 5796 5796 5798 5800 5802 5802 5801 5801 5802 5803 5803 5803 5804 5804 5805 5805 5806 5806 5807 5808 5808 5809 5809 5810 5810 5810 5811
5610 5615 5621 5629 5635 5639 5645 5651 5658 5664 5669 5675 5680 5685 5688 5692 5697 5702 5706 5710 5712 5715 5720 5724 5727 5728 5728 5734 5741 5746 5752 5757 5761 5764 5768 5772 5775 5776 5778 5778 5779 5781 5782 5784 5786 5787 5789 5789 5790 5791 5791 5792 5792 5793 5794 5794 5794 5794 5794 5793 5794 5796 5798 5799 5799 5799 5799 5799 5800 5800 5801 5802 5802 5803 5803 5804 5805 5805 5806 5807 5807 5808 5809 5809 5809 5809
5608 5612 5618 5624 5629 5634 5640 5647 5654 5659 5665 5670 5675 5680 5684 5688 5693 5697 5702 5706 5709 5713 5717 5720 5723 5724 5725 5733 5740 5744 5748 5753 5757 5762 5767 5769 5772 5773 5774 5775 5776 5778 5780 5782 5783 5785 5786 5787 5788 5789 5789 5790 5790 5791 5791 5792 5792 5792 5792 5792 5793 5794 5795 5796 5796 5796 5796 5797 5798 5798 5799 5800 5800 5801 5802 5802 5803 5804 5804 5805 5806 5807 5807 5807 5807 5808
5605 5609 5613 5619 5627 5632 5638 5645 5650 5655 5661 5666 5671 5677 5681 5684 5688 5693 5698 5703 5706 5708 5711 5716 5719 5720 5724 5731 5737 5741 5746 5752 5757 5761 5763 5766 5767 5769 5770 5771 5773 5775 5777 5779 5780 5782 5784 5785 5786 5786 5787 5787 5788 5788 5789 5789 5790 5791 5791 5791 5791 5792 5793 5793 5793 5794 5794 5795 5796 5796 5798 5798 5799 5799 5800 5801 5801 5802 5803 5804 5805 5805 5806 5806 5806 5807
5604 5608 5614 5622 5629 5633 5638 5644 5650 5656 5661 5665 5671 5676 5679 5682 5686 5691 5695 5698 5701 5703 5706 5713 5716 5718 5722 5728 5735 5741 5747 5751 5754 5757 5759 5761 5763 5764 5766 5767 5770 5773 5775 5776 5778 5780 5781 5782 5783 5784 5785 5785 5786 5786 5787 5787 5788 5788 5788 5788 5789 5790 5790 5791 5791 5791 5792 5793 5794 5795 5796 5797 5797 5798 5799 5799 5800 5801 5802 5803 5804 5804 5804 5804 5805 5805
5604 5611 5617 5623 5628 5633 5637 5642 5647 5652 5658 5663 5669 5673 5676 5681 5686 5689 5693 5695 5698 5700 5703 5709 5714 5716 5720 5725 5733 5740 5744 5747 5750 5753 5756 5757 5759 5761 5762 5766 5770 5771 5773 5774 5775 5777 5778 5779 5780 5781 5782 5783 5783 5784 5785 5785 5785 5786 5786 5786 5787 5787 5788 5788 5789 5790 5790 5791 5792 5793 5794 5795 5796 5797 5798 5798 5799 5800 5801 5802 5802 5802 5802 5803 5803 5804
5604 5610 5615 5620 5626 5630 5635 5640 5645 5649 5654 5659 5665 5670 5675 5680 5683 5687 5692 5695 5697 5699 5702 5708 5713 5716 5719 5723 5730 5736 5739 5743 5746 5750 5753 5755 5756 5758 5761 5765 5768 5769 5770 5771 5773 5774 5775 5776 5777 5779 5779 5780 5781 5782 5782 5783 5783 5783 5784 5785 5785 5786 5786 5787 5788 5788 5789 5790 5791 5792 5792 5793 5794 5795 5796 5797 5798 5799 5800 5800 5800 5800 5800 5801 5802 5802
5603 5609 5614 5619 5624 5629 5633 5639 5643 5648 5652 5657 5664 5669 5673 5676 5680 5684 5689 5692 5695 5698 5701 5707 5712 5714 5716 5720 5726 5732 5736 5739 5743 5748 5750 5752 5754 5757 5761 5764 5766 5766 5768 5769 5770 5772 5773 5774 5775 5776 5777 5777 5778 5779 5780 5780 5781 5781 5782 5783 5783 5784 5785 5786 5787 5787 5788 5789 5789 5790 5790 5791 5793 5794 5795 5796 5797 5798 5798 5798 5798 5798 5799 5799 5800 5801
5601 5607 5612 5617 5622 5628 5632 5636 5640 5646 5651 5657 5663 5667 5670 5673 5677 5681 5685 5688 5692 5696 5699 5704 5709 5711 5713 5717 5723 5729 5734 5738 5742 5745 5747 5749 5752 5757 5761 5763 5763 5765 5766 5767 5768 5769 5771 5772 5773 5774 5774 5775 5775 5776 5777 5778 5778 5779 5780 5781 5782 5783 5784 5784 5785 5786 5787 5787 5788 5788 5789 5790 5791 5793 5794 5795 5796 5796 5796 5795 5796 5796 5797 5798 5799 5799
5600 5605 5610 5615 5621 5625 5629 5633 5639 5644 5648 5653 5659 5663 5669 5673 5676 5680 5683 5686 5690 5694 5698 5701 5705 5707 5710 5716 5721 5726 5732 5736 5740 5743 5745 5748 5753 5757 5760 5761 5762 5763 5764 5765 5766 5767 5768 5769 5770 5771 5772 5772 5773 5774 5774 5775 5776 5777 5778 5779 5780 5781 5782 5783 5783 5784 5785 5786 5787 5787 5788 5789 5790 5791 5792 5793 5794 5794 5793 5794 5794 5795 5796 5796 5796 5796
5600 5605 5609 5613 5618 5623 5628 5634 5639 5644 5647 5651 5655 5660 5665 5670 5675 5679 5683 5686 5690 5694 5696 5699 5702 5705 5710 5715 5718 5724 5730 5734 5738 5741 5744 5748 5752 5755 5758 5759 5759 5760 5761 5762 5763 5764 5765 5766 5767 5768 5769 5770 5771 5771 5772 5773 5774 5775 5776 5777 5778 5779 5780 5781 5781 5782 5783 5784 5785 5786 5787 5788 5789 5790 5790 5791 5792 5792 5792 5792 5793 5793 5794 5794 5794 5794
5601 5605 5608 5612 5618 5624 5630 5635 5639 5643 5647 5652 5657 5660 5663 5667 5672 5676 5680 5684 5689 5692 5695 5697 5700 5704 5709 5713 5716 5722 5728 5732 5735 5739 5743 5746 5750 5753 5755 5755 5756 5757 5759 5760 5761 5761 5762 5764 5765 5766 5767 5768 5768 5769 5770 5770 5771 5773 5774 5775 5776 5777 5778 5779 5779 5780 5781 5782 5783 5784 5785 5786 5787 5788 5789 5789 5790 5790 5790 5790 5791 5791 5792 5792 5792 5792
5600 5605 5609 5614 5619 5623 5626 5630 5636 5642 5647 5653 5657 5661 5664 5667 5670 5674 5678 5683 5687 5690 5693 5696 5698 5703 5707 5711 5714 5720 5726 5730 5733 5736 5740 5744 5747 5750 5751 5752 5753 5755 5756 5757 5758 5759 5760 5762 5763 5764 5764 5765 5766 5766 5767 5768 5769 5770 5772 5773 5774 5775 5776 5777 5777 5778 5779 5780 5781 5782 5783 5784 5785 5786 5787 5788 5788 5788 5788 5788 5789 5789 5790 5790 5790 5789
5602 5606 5610 5614 5617 5619 5624 5630 5636 5641 5645 5650 5654 5659 5664 5667 5671 5675 5679 5683 5686 5689 5692 5695 5698 5702 5706 5709 5713 5718 5723 5727 5730 5733 5736 5740 5743 5746 5748 5749 5751 5752 5753 5755 5756 5757 5759 5760 5761 5762 5762 5763 5763 5764 5765 5766 5767 5768 5770 5771 5772 5773 5774 5775 5775 5776 5777 5778 5779 5780 5781 5782 5784 5784 5785 5785 5786 5786 5786 5787 5787 5788 5788 5788 5787 5787
5604 5607 5610 5612 5614 5619 5624 5629 5633 5637 5642 5648 5653 5658 5664 5668 5671 5674 5678 5682 5685 5688 5691 5694 5697 5701 5705 5708 5712 5716 5721 5724 5727 5730 5734 5737 5740 5743 5746 5748 5749 5750 5752 5753 5754 5756 5757 5758 5759 5760 5760 5761 5761 5761 5763 5764 5764 5766 5767 5769 5770 5771 5772 5773 5773 5774 5775 5776 5777 5779 5780 5781 5782 5782 5783 5783 5784 5784 5784 5785 5785 5786 5786 5785 5785 5784
5603 5606 5609 5611 5615 5619 5624 5628 5632 5637 5642 5647 5652 5657 5662 5665 5669 5672 5676 5680 5682 5685 5689 5692 5696 5700 5705 5707 5711 5715 5719 5722 5725 5728 5731 5735 5738 5741 5744 5746 5747 5749 5750 5751 5752 5754 5755 5756 5757 5758 5758 5758 5759 5759 5760 5761 5762 5763 5765 5767 5768 5769 5770 5771 5771 5772 5773 5774 5776 5777 5778 5779 5780 5780 5781 5781 5782 5782 5782 5782 5783 5783 5783 5783 5782 5781
5603 5607 5610 5613 5617 5622 5627 5632 5637 5640 5642 5645 5649 5654 5659 5663 5666 5670 5674 5677 5681 5684 5687 5691 5695 5700 5703 5707 5710 5714 5717 5721 5724 5727 5730 5733 5736 5739 5741 5743 5745 5747 5748 5749 5750 5751 5753 5754 5754 5755 5756 5756 5757 5757 5758 5758 5759 5760 5762 5764 5766 5767 5768 5768 5769 5770 5771 5772 5774 5775 5776 5777 5778 5778 5779 5779 5780 5780 5780 5780 5781 5781 5780 5780 5779 5778
5605 5608 5611 5615 5619 5623 5627 5631 5635 5639 5642 5646 5649 5653 5657 5661 5664 5668 5672 5676 5681 5683 5685 5690 5695 5699 5702 5706 5709 5712 5716 5719 5722 5725 5728 5731 5734 5736 5739 5741 5743 5744 5746 5747 5748 5749 5750 5751 5752 5752 5753 5754 5755 5755 5755 5756 5757 5758 5760 5762 5764 5765 5766 5766 5767 5768 5769 5770 5772 5773 5774 5775 5776 5776 5777 5777 5777 5778 5778 5778 5778 5778 5778 5777 5776 5776
5607 5610 5612 5616 5620 5623 5626 5630 5633 5637 5641 5646 5649 5652 5656 5659 5662 5666 5671 5676 5679 5681 5685 5691 5695 5697 5701 5705 5708 5712 5715 5717 5721 5723 5726 5729 5732 5734 5736 5738 5740 5742 5743 5744 5745 5746 5747 5748 5749 5750 5751 5752 5753 5753 5754 5754 5755 5756 5757 5760 5762 5763 5763 5764 5765 5766 5767 5768 5769 5771 5772 5773 5773 5774 5774 5775 5775 5775 5775 5775 5776 5776 5775 5774 5773 5773
5609 5611 5613 5616 5619 5623 5627 5630 5633 5636 5640 5644 5648 5652 5656 5659 5662 5666 5670 5674 5677 5680 5686 5691 5694 5696 5699 5703 5706 5710 5713 5715 5718 5721 5724 5727 5729 5731 5734 5736 5737 5738 5739 5739 5740 5742 5743 5745 5746 5747 5748 5749 5750 5751 5751 5752 5753 5754 5755 5757 5759 5760 5761 5762 5763 5764 5765 5766 5767 5769 5770 5770 5771 5771 5772 5772 5772 5772 5773 5773 5773 5773 5772 5771 5771 5770
5610 5612 5614 5617 5620 5624 5627 5631 5634 5637 5639 5643 5647 5651 5655 5658 5662 5665 5669 5672 5675 5679 5684 5688 5691 5694 5698 5701 5704 5707 5710 5713 5716 5719 5722 5725 5727 5729 5732 5733 5734 5734 5734 5735 5736 5738 5739 5741 5743 5744 5746 5747 5747 5748 5749 5750 5750 5752 5753 5754 5756 5757 5758 5759 5760 5761 5762 5763 5765 5766 5767 5768 5768 5769 5769 5769 5769 5770 5770 5770 5770 5769 5769 5768 5768 5767
5611 5612 5615 5618 5621 5624 5627 5631 5634 5637 5639 5642 5646 5649 5653 5657 5660 5664 5667 5671 5674 5678 5682 5685 5689 5693 5697 5699 5702 5705 5708 5711 5714 5717 5720 5723 5725 5727 5729 5730 5730 5730 5731 5732 5733 5735 5737 5739 5740 5742 5743 5744 5745 5746 5747 5747 5748 5749 5751 5752 5753 5754 5755 5756 5757 5758 5759 5760 5762 5763 5764 5764 5765 5766 5766 5766 5766 5766 5766 5766 5766 5766 5765 5765 5764 5764
5612 5613 5615 5618 5621 5624 5628 5631 5634 5636 5638 5640 5644 5649 5653 5656 5660 5663 5667 5670 5674 5677 5681 5684 5688 5692 5696 5699 5701 5704 5707 5710 5713 5716 5719 5721 5723 5725 5725 5726 5727 5727 5728 5729 5730 5732 5734 5735 5737 5738 5740 5741 5742 5743 5744 5745 5746 5747 5748 5749 5750 5751 5753 5754 5754 5755 5757 5758 5758 5759 5760 5761 5762 5762 5763 5763 5763 5763 5763 5763 5763 5763 5762 5761 5761 5760
5612 5613 5616 5619 5622 5625 5628 5631 5633 5635 5637 5640 5645 5649 5653 5656 5660 5663 5666 5670 5673 5676 5679 5683 5688 5692 5695 5698 5701 5703 5706 5708 5711 5715 5718 5720 5721 5722 5723 5723 5724 5725 5726 5727 5728 5729 5731 5733 5734 5736 5737 5739 5739 5740 5741 5743 5744 5744 5745 5747 5748 5749 5751 5751 5752 5752 5754 5754 5755 5756 5757 5757 5758 5759 5759 5759 5759 5759 5759 5759 5759 5759 5758 5758 5757 5757
5613 5614 5617 5619 5622 5625 5628 5631 5633 5635 5638 5641 5645 5648 5652 5655 5659 5662 5666 5670 5673 5676 5679 5683 5687 5691 5694 5697 5699 5701 5704 5707 5709 5712 5715 5717 5718 5719 5720 5721 5722 5723 5724 5725 5726 5728 5729 5731 5732 5733 5734 5735 5736 5738 5739 5741 5741 5742 5743 5744 5745 5746 5748 5749 5749 5749 5750 5751 5752 5753 5753 5754 5754 5755 5755 5755 5755 5755 5755 5755 5755 5755 5755 5754 5754 5753
5614 5615 5617 5620 5622 5625 5628 5631 5633 5635 5638 5642 5645 5648 5651 5654 5657 5661 5665 5669 5672 5674 5678 5682 5686 5689 5691 5694 5697 5699 5702 5705 5708 5710 5713 5715 5716 5717 5718 5720 5721 5721 5722 5723 5725 5726 5727 5729 5730 5731 5732 5733 5734 5735 5736 5737 5738 5739 5740 5741 5742 5743 5744 5745 5746 5746 5747 5748 5749 5749 5749 5749 5750 5751 5751 5751 5751 5751 5751 5751 5752 5751 5751 5750 5750 5750
5615 5616 5618 5620 5622 5625 5628 5631 5634 5636 5639 5642 5645 5648 5651 5654 5658 5661 5665 5668 5671 5673 5676 5680 5684 5687 5689 5692 5695 5698 5701 5704 5706 5708 5711 5713 5715 5716 5717 5718 5719 5720 5721 5723 5724 5725 5726 5727 5728 5729 5730 5731 5732 5733 5733 5734 5735 5736 5737 5738 5739 5740 5741 5742 5742 5743 5744 5744 5745 5744 5744 5745 5745 5746 5746 5747 5747 5747 5747 5747 5748 5747 5747 5747 5746 5746
5615 5617 5619 5621 5623 5625 5628 5631 5633 5636 5639 5642 5645 5648 5651 5655 5658 5661 5664 5668 5670 5672 5675 5678 5682 5685 5688 5690 5693 5696 5698 5701 5704 5707 5710 5712 5714 5715 5716 5716 5717 5718 5720 5721 5722 5723 5724 5725 5726 5726 5727 5728 5729 5730 5731 5731 5732 5733 5734 5734 5735 5736 5737 5738 5739 5739 5740 5740 5740 5739 5739 5740 5740 5740 5741 5742 5742 5743 5743 5743 5743 5744 5743 5743 5743 5743
5615 5617 5619 5621 5623 5625 5628 5630 5633 5636 5639 5642 5645 5648 5651 5654 5657 5660 5663 5666 5668 5671 5673 5676 5680 5684 5686 5689 5692 5694 5696 5700 5703 5707 5709 5711 5712 5712 5713 5714 5715 5716 5717 5718 5719 5720 5721 5722 5723 5724 5725 5726 5726 5727 5728 5728 5729 5730 5731 5731 5732 5733 5733 5734 5735 5735 5736 5736 5735 5735 5735 5735 5736 5735 5736 5737 5738 5738 5739 5739 5739 5740 5739 5739 5739 5739
5616 5617 5619 5621 5623 5625 5628 5630 5633 5636 5639 5641 5645 5648 5651 5654 5656 5658 5661 5663 5666 5670 5672 5675 5678 5682 5684 5687 5689 5692 5695 5699 5703 5705 5707 5708 5708 5708 5709 5710 5712 5713 5714 5715 5715 5716 5718 5719 5720 5721 5722 5722 5723 5724 5725 5725 5726 5727 5728 5728 5729 5729 5730 5730 5730 5731 5731 5732 5732 5733 5733 5733 5733 5733 5732 5732 5734 5735 5735 5735 5735 5736 5736 5735 5735 5735
5616 5618 5619 5621 5623 5625 5628 5630 5633 5635 5638 5641 5644 5647 5650 5652 5654 5656 5659 5662 5665 5669 5671 5674 5676 5679 5682 5685 5688 5691 5694 5697 5700 5701 5702 5703 5704 5704 5706 5707 5709 5710 5711 5712 5713 5714 5716 5716 5717 5717 5718 5719 5720 5721 5721 5722 5722 5723 5724 5725 5725 5725 5725 5726 5727 5727 5728 5728 5728 5729 5729 5729 5730 5730 5729 5729 5730 5731 5730 5731 5731 5731 5731 5731 5731 5731
5615 5617 5619 5621 5623 5625 5628 5630 5632 5635 5637 5640 5643 5645 5648 5651 5653 5655 5659 5662 5664 5667 5670 5672 5675 5677 5680 5683 5685 5688 5690 5692 5694 5696 5698 5699 5700 5701 5703 5704 5705 5707 5708 5709 5710 5711 5712 5712 5713 5714 5715 5716 5716 5717 5717 5718 5718 5719 5720 5720 5721 5721 5721 5722 5723 5723 5724 5724 5724 5725 5725 5725 5726 5726 5725 5724 5725 5726 5726 5726 5727 5727 5727 5727 5727 5727
5615 5617 5619 5622 5623 5626 5628 5629 5631 5634 5636 5639 5641 5644 5647 5649 5652 5654 5657 5660 5663 5665 5667 5670 5673 5675 5677 5679 5682 5684 5686 5687 5690 5692 5694 5695 5696 5698 5699 5700 5701 5703 5704 5705 5706 5707 5707 5708 5710 5710 5711 5711 5712 5712 5713 5713 5714 5715 5715 5716 5716 5716 5717 5718 5719 5719 5720 5720 5720 5720 5721 5721 5722 5721 5720 5719 5720 5721 5722 5722 5723 5723 5723 5723 5723 5723
5615 5617 5619 5621 5623 5625 5627 5629 5631 5633 5635 5637 5640 5643 5645 5648 5650 5652 5655 5658 5661 5663 5665 5668 5670 5673 5675 5677 5678 5680 5682 5684 5686 5688 5690 5691 5693 5694 5695 5696 5697 5698 5699 5701 5701 5702 5703 5704 5705 5705 5705 5705 5706 5706 5707 5708 5709 5710 5711 5711 5711 5712 5713 5714 5714 5715 5715 5716 5716 5716 5716 5716 5717 5718 5716 5716 5717 5717 5718 5718 5719 5719 5720 5719 5719 5719
5615 5617 5618 5620 5622 5625 5627 5628 5630 5632 5633 5635 5638 5641 5643 5646 5648 5650 5653 5656 5658 5661 5663 5665 5667 5669 5671 5674 5675 5677 5679 5681 5682 5684 5686 5687 5689 5690 5691 5692 5693 5693 5694 5695 5696 5697 5698 5699 5699 5699 5700 5700 5700 5701 5701 5702 5703 5705 5706 5706 5707 5708 5709 5709 5710 5710 5711 5711 5712 5712 5711 5712 5713 5714 5713 5713 5713 5713 5713 5714 5715 5715 5715 5715 5715 5715
5614 5616 5618 5620 5622 5624 5626 5627 5629 5630 5632 5634 5636 5638 5641 5644 5646 5648 5651 5653 5655 5658 5660 5662 5664 5666 5668 5670 5672 5674 5675 5677 5679 5680 5682 5683 5684 5685 5686 5687 5688 5689 5689 5690 5691 5692 5693 5693 5693 5694 5695 5695 5695 5695 5696 5697 5698 5699 5700 5701 5702 5704 5704 5705 5705 5706 5706 5707 5707 5707 5707 5707 5708 5708 5708 5708 5709 5709 5709 5710 5711 5711 5711 5711 5711 5710
5613 5615 5617 5619 5621 5623 5624 5626 5628 5629 5631 5632 5634 5636 5639 5641 5643 5646 5648 5650 5652 5654 5656 5658 5660 5662 5664 5666 5668 5670 5672 5673 5675 5677 5678 5679 5680 5681 5681 5682 5683 5684 5685 5685 5686 5687 5687 5688 5689 5689 5690 5690 5691 5691 5691 5692 5693 5694 5695 5696 5697 5699 5699 5700 5701 5701 5702 5702 5702 5703 5703 5703 5703 5703 5703 5704 5705 5705 5705 5705 5706 5706 5706 5706 5706 5706
5612 5614 5616 5617 5619 5621 5623 5625 5626 5628 5629 5631 5633 5635 5637 5639 5641 5643 5645 5647 5649 5650 5652 5654 5656 5658 5660 5662 5664 5666 5667 5669 5671 5672 5674 5675 5676 5676 5677 5678 5678 5679 5680 5680 5681 5682 5682 5683 5684 5685 5686 5686 5686 5687 5687 5687 5688 5689 5691 5692 5692 5693 5694 5695 5696 5696 5697 5697 5698 5698 5698 5698 5699 5699 5698 5699 5700 5700 5700 5700 5700 5701 5701 5701 5701 5701
5610 5612 5614 5615 5618 5620 5622 5623 5625 5626 5628 5630 5631 5633 5635 5637 5638 5640 5642 5644 5646 5647 5649 5650 5652 5654 5656 5658 5659 5661 5663 5664 5666 5667 5669 5670 5671 5672 5672 5673 5674 5674 5675 5676 5676 5677 5677 5678 5679 5680 5681 5682 5682 5683 5683 5683 5684 5685 5686 5687 5688 5688 5689 5690 5691 5691 5692 5692 5693 5693 5693 5693 5694 5694 5694 5694 5695 5695 5695 5695 5695 5695 5695 5696 5696 5696
5608 5610 5611 5613 5615 5617 5619 5622 5623 5625 5626 5628 5630 5631 5633 5634 5636 5637 5639 5641 5643 5644 5646 5647 5649 5650 5652 5654 5655 5657 5658 5660 5661 5663 5664 5665 5666 5667 5668 5669 5669 5670 5671 5672 5672 5673 5673 5674 5675 5676 5677 5677 5678 5678 5678 5679 5680 5681 5681 5682 5683 5683 5684 5685 5685 5686 5687 5688 5688 5688 5688 5689 5689 5690 5690 5690 5689 5689 5690 5690 5690 5690 5690 5690 5691 5691
5605 5607 5609 5610 5612 5614 5616 5618 5620 5622 5624 5625 5627 5629 5630 5631 5633 5634 5636 5638 5639 5641 5642 5644 5645 5647 5648 5650 5651 5653 5654 5656 5657 5658 5660 5661 5662 5663 5664 5665 5665 5666 5667 5668 5669 5669 5670 5670 5671 5672 5672 5673 5674 5674 5674 5675 5676 5676 5677 5677 5678 5678 5679 5680 5680 5681 5682 5683 5683 5683 5683 5683 5684 5684 5685 5685 5684 5684 5685 5685 5685 5685 5685 5685 5686 5686